Weather History for White Mountain, AK

Change the Weather History Date:

Monday, June 9, 2014

  Actual Average (PAKK) Record (PAKK)
Temperature  
Mean Temperature 42 °F -  
Max Temperature 50 °F 56 °F 66 °F (2002)
Min Temperature 35 °F 41 °F 33 °F (2013)
Degree Days  
Heating Degree Days 22    
Moisture  
Dew Point 34 °F    
Average Humidity 76    
Maximum Humidity 93    
Minimum Humidity 44    
Precipitation  
Precipitation 0.00 in - - ()
Sea Level Pressure  
Sea Level Pressure 29.90 in    
Wind  
Wind Speed 4 mph (North)    
Max Wind Speed 12 mph    
Max Gust Speed -    
Visibility 10 miles    
Events Rain    
Averages and records for this station are not official NWS values.
T = Trace of Precipitation, MM = Missing Value Source: NWS Daily Summary

Daily Weather History Graph

Daily Weather History Graph

Search for Another Location

Airport:

Trip Planner

Search our weather history database for the weather conditions in past years. The results will help you decide how hot, cold, wet, or windy it might be!

Date:

Astronomy

Jun. 09, 2014 Rise Set
Actual Time 4:17 AM AKDT 1:30 AM AKDT
Civil Twilight Sun does not rise Sun does not rise
Nautical Twilight Sun does not rise Sun does not rise
Astronomical Twilight Sun does not rise Sun does not rise
Moon 8:17 PM AKDT (6/9) 3:54 AM AKDT (6/9)
Length of Visible Light 24h 00m
Length of Day
21h 12m
Waxing Gibbous, 86% of the Moon is Illuminated
Jun 9
Waxing Gibbous
Jun 12
Full
Jun 19
Last Quarter
Jun 27
New
Jul 5
First Quarter

Hourly Weather History & Observations

Time (AKDT) Temp. Windchill Dew Point Humidity Pressure Visibility Wind Dir Wind Speed Gust Speed Precip Events Conditions
1:58 AM 37.9 °F 35.5 °F 35.1 °F 89% 29.87 in 10.0 mi SW 3.5 mph - N/A   Clear
2:58 AM 37.9 °F - 35.1 °F 89% 29.87 in 10.0 mi Calm Calm - N/A   Partly Cloudy
3:34 AM 37.4 °F 33.8 °F 35.6 °F 93% 29.84 in 10.0 mi North 4.6 mph - N/A   Mostly Cloudy
3:58 AM 36.0 °F 31.1 °F 34.0 °F 93% 29.88 in 10.0 mi North 5.8 mph - N/A   Overcast
4:42 AM 35.6 °F 30.7 °F 33.8 °F 93% 29.84 in 10.0 mi NNE 5.8 mph - N/A   Scattered Clouds
4:53 AM 35.6 °F 30.7 °F 33.8 °F 93% 29.84 in 10.0 mi NNE 5.8 mph - N/A   Mostly Cloudy
4:58 AM 36.0 °F 32.1 °F 34.0 °F 93% 29.87 in 10.0 mi North 4.6 mph - N/A   Mostly Cloudy
5:50 AM 35.6 °F 30.7 °F 33.8 °F 93% 29.84 in 10.0 mi NNE 5.8 mph - N/A   Scattered Clouds
5:58 AM 36.0 °F 31.1 °F 34.0 °F 93% 29.88 in 10.0 mi NNE 5.8 mph - N/A   Scattered Clouds
6:02 AM 35.6 °F 30.7 °F 33.8 °F 93% 29.84 in 10.0 mi NNE 5.8 mph - N/A   Mostly Cloudy
6:45 AM 35.6 °F 31.7 °F 33.8 °F 93% 29.85 in 10.0 mi North 4.6 mph - N/A   Scattered Clouds
6:58 AM 37.0 °F 33.3 °F 34.0 °F 89% 29.88 in 10.0 mi North 4.6 mph - N/A   Scattered Clouds
7:37 AM 39.2 °F - 35.6 °F 87% 29.85 in 10.0 mi Calm Calm - N/A   Mostly Cloudy
7:58 AM 39.0 °F - 35.1 °F 86% 29.89 in 10.0 mi Calm Calm - N/A   Overcast
8:57 AM 39.0 °F - 36.0 °F 89% 29.90 in 1.8 mi Calm Calm - 0.00 in Rain Light Rain
9:07 AM 39.2 °F - 37.4 °F 93% 29.87 in 3.0 mi Calm Calm - 0.00 in Rain Light Rain
9:34 AM 39.2 °F - 37.4 °F 93% 29.87 in 9.0 mi Calm Calm - 0.00 in   Overcast
10:20 AM 42.8 °F 38.6 °F 35.6 °F 76% 29.87 in 10.0 mi South 6.9 mph - N/A   Scattered Clouds
10:26 AM 42.8 °F 37.5 °F 35.6 °F 76% 29.87 in 10.0 mi South 9.2 mph - N/A   Mostly Cloudy
12:20 PM 44.6 °F 40.2 °F 35.6 °F 71% 29.89 in 10.0 mi SSE 8.1 mph - N/A   Overcast
12:58 PM 45.0 °F 39.7 °F 35.1 °F 68% 29.93 in 10.0 mi SSE 10.4 mph - N/A   Overcast
1:58 PM 45.0 °F 39.3 °F 36.0 °F 71% 29.94 in 10.0 mi South 11.5 mph - N/A   Overcast
2:58 PM 45.0 °F 40.6 °F 35.1 °F 68% 29.94 in 10.0 mi South 8.1 mph - N/A   Overcast
3:58 PM 46.0 °F 41.0 °F 34.0 °F 63% 29.95 in 10.0 mi SSW 10.4 mph - N/A   Overcast
4:33 PM 46.4 °F 44.3 °F 33.8 °F 62% 29.92 in 9.0 mi Variable 4.6 mph - N/A   Mostly Cloudy
4:58 PM 48.0 °F - 34.0 °F 58% 29.95 in 10.0 mi South 10.4 mph - N/A   Scattered Clouds
5:58 PM 48.0 °F - 30.9 °F 52% 29.95 in 10.0 mi Variable 4.6 mph - N/A   Clear
7:58 PM 50.0 °F - 30.0 °F 46% 29.94 in 10.0 mi Variable 4.6 mph - N/A   Clear
8:58 PM 50.0 °F - 28.9 °F 44% 29.95 in 10.0 mi Calm Calm - N/A   Clear
9:58 PM 48.9 °F - 28.9 °F 46% 29.95 in 10.0 mi SSW 4.6 mph - N/A   Clear
10:58 PM 48.9 °F - 30.0 °F 48% 29.96 in 10.0 mi Calm Calm - N/A   Clear
11:58 PM 48.9 °F - 28.9 °F 46% 29.96 in 10.0 mi West 3.5 mph - N/A   Clear